Weather in Prudy

Russia / Republic of Crimea     45°14′08″N   34°42′00″E
temp.,
°C
wind,
m/s
gust,
m/s
humid.,
%
clouds,
%
prec.,
mm/h
press.,
hPa
HPBL,
m
27 february, sat
sat2700:00+8wsw512700 0.0 1023293
03:00+7wsw715700 0.0 1021350
06:00+7wsw614720 0.0 1020324
09:00+8wsw613680 0.0 1019420
12:00+12w812580 0.0 1019681
15:00+13w811580 0.0 1018786
18:00+10w597723 0.0 1017490
21:00+6n359362 0.8 1018313
28 february, sun
sun2800:00+5n5793100 4.2 1018461
03:00+5nnw4785100 4.8 1019626
06:00+4nw4782100 0.1 1020558
09:00+3nw579197 0.4 1020534
12:00+4nw5682100 0.4 1021691
15:00+5nw5678100 0.8 1021720
18:00+4nw577699 0.4 1022843
21:00+2nw479799 0.6 1023384
1 march, mon
mon100:00+2w368999 0.1 1023273
03:00+1wnw469697 0.1 1024264
06:00+1wnw349198 0.0 1024390
09:00+1wnw349699 0.1 1026264
12:00+3w227499 0.1 1026643
15:00+5nnw336499 0.2 1027958
18:00+3ne337599 0.1 1027603
21:00+2ene117997 0.3 102973
2 march, tue
tue200:00+1wnw018167 0.0 103022
03:000w228464 0.0 103024
06:000wnw23890 0.0 103055
09:00+1wnw348231 0.0 1031288
12:00+5w455625 0.0 10301042
15:00+7w685723 0.0 10281116
18:00+5w6106846 0.0 1027878
21:00+3wsw7127971 0.0 1026582
3 march, wed
wed300:00+5wsw7127967 0.0 1026476
03:00+3w489070 0.0 1026190
06:00+2wnw349510 0.0 102681
09:00+3wsw348811 0.0 1027199
12:00+9w56661 0.0 1027783
15:00+11wnw57551 0.0 10261434
18:00+9nw476242 0.0 1026278
21:00+5wsw378327 0.0 1027172